Regional Weather Roundup
Issued by NWS

Home | Current Version | Previous Version | Graphics & Text | Print | Product List | Glossary Off
Versions: 1 2 3 4 5 6 7 8 9 10 11 12 13 14 15 16 17 18 19 20 21 22 23 24 25 26 27 28 29 30 31 32 33 34 35 36 37 38 39 40 41 42 43 44 45 46 47 48 49 50

000
ASUS43 KDMX 252003
RWRIA

WEATHER ROUNDUP FOR IOWA
NATIONAL WEATHER SERVICE DES MOINES IA
300 PM CDT WED MAY 25 2016

NOTE: "FAIR" INDICATES FEW OR NO CLOUDS BELOW 12,000 FEET WITH NO
SIGNIFICANT WEATHER AND/OR OBSTRUCTIONS TO VISIBILITY.

* - THESE STATIONS ARE NOT NWS STATIONS...THUS NOT UNDER NWS
QUALITY CONTROL.  THEY ALSO DO NOT REPORT WEATHER SUCH
AS PRECIPITATION OR FOG.

IAZ001>003-012>014-020>022-031>034-043>046-252100-
   NORTHWEST IOWA

CITY           SKY/WX    TMP DP  RH WIND       PRES   REMARKS
CARROLL *      MOSUNNY   77  63  61 SW10G18   29.84F
CHEROKEE *     MOSUNNY   77  64  63 SW13      29.83F
DENISON *      SUNNY     77  61  57 SW12      29.83S
LE MARS *      MOSUNNY   79  63  57 SW10G17   29.82S HX  80
ORANGE CITY *  MOSUNNY   75  63  64 SW9       29.82F
SHELDON *      MOSUNNY   77  61  57 SW12      29.81F
SIOUX CITY     SUNNY     81  63  54 S12G20    29.81F HX  82
SPENCER        MOSUNNY   79  59  50 SW15G21   29.82F HX  80
STORM LAKE *     N/A     79  57  47 SW14G24   29.84F HX  80
$$

IAZ055>058-069>071-079>083-090>094-252100-
   SOUTHWEST IOWA

CITY           SKY/WX    TMP DP  RH WIND       PRES   REMARKS
ATLANTIC *     SUNNY     77  63  61 W7        29.86R
AUDUBON *        N/A     77  64  65 SW7       29.87S
CLARINDA *       N/A     79  64  61 MISG      29.87R HX  81
COUNCIL BLFS * PTSUNNY   77  63  61 SW12      29.85S
CRESTON *      MOSUNNY   77  64  65 SW16      29.88S
HARLAN  *      CLOUDY    77  63  61 SW13      29.89S
LAMONI         CLOUDY    78  62  57 S21G26    29.87R HX  80
RED OAK *      MOSUNNY   82  64  54 SW18G25   29.85S HX  84
SHENANDOAH *   SUNNY     81  64  57 SW22      29.85R HX  82
$$

IAZ047>049-059>061-072>074-084-252100-
   CENTRAL IOWA

CITY           SKY/WX    TMP DP  RH WIND       PRES   REMARKS
AMES           CLOUDY    77  65  66 SW14      29.85R
ANKENY *       CLOUDY    75  64  69 S9G15     29.86R
BOONE *        CLOUDY    77  63  61 SW14      29.85R
CHARITON *     MOSUNNY   79  63  57 SW7G17    29.87R HX  80
DES MOINES     CLOUDY    76  63  64 S9        29.86R
GRINNELL*      CLOUDY    77  63  61 SW9       29.88R
KNOXVILLE *    MOSUNNY   77  61  57 S10       29.86R
MARSHALLTOWN   PTSUNNY   78  64  61 S15       29.84F HX  80
NEWTON *       CLOUDY    77  64  65 SW10      29.87R
PELLA *        CLOUDY    78  62  57 S9        29.88R HX  80
PERRY *          N/A     77  64  65 W6        29.86S
$$

IAZ004>006-015-016-023>025-035-036-252100-
   NORTH CENTRAL IOWA

CITY           SKY/WX    TMP DP  RH WIND       PRES   REMARKS
ALGONA *       CLOUDY    79  61  53 SW15G22   29.83F HX  80
CLARION *      PTSUNNY   77  68  73 SW16      29.85S
ESTHERVILLE    PTSUNNY   78  59  51 SW15      29.82S
FORT DODGE *   CLOUDY    75  63  64 SW12      29.85S
MASON CITY     CLOUDY    73  65  75 SW14G20   29.85F
FOREST CITY *  PTSUNNY   73  63  68 SW14G22   29.84F
WEBSTER CITY * CLOUDY    77  66  69 SW10G17   29.83S
IOWA FALLS *     N/A     77  66  69 SW15      29.86S
$$

IAZ007>011-017>019-026>030-037>042-050>054-066-252100-
   NORTHEAST IOWA

CITY           SKY/WX    TMP DP  RH WIND       PRES   REMARKS
CEDAR RAPIDS   CLOUDY    79  64  60 S14       29.86S HX  81
CHARLES CITY * CLOUDY    73  68  83 S15       29.86F
CLINTON *      CLOUDY    82  67  60 S14       29.88F HX  84
DECORAH *      CLOUDY    72  70  94 CALM      29.85F
DUBUQUE        PTSUNNY   80  64  58 S17G26    29.87F HX  82
MONTICELLO *   CLOUDY    82  64  54 S15G24    29.86S HX  84
OELWEIN *      CLOUDY    77  64  65 S21G26    29.87F
WATERLOO       MOSUNNY   76  62  62 SW15      29.84F
$$

IAZ064-065-067-068-078-252100-
   EAST CENTRAL IOWA

CITY           SKY/WX    TMP DP  RH WIND       PRES   REMARKS
DAVENPORT      CLOUDY    81  63  54 S15       29.89F HX  82
IOWA CITY      CLOUDY    80  62  54 S12       29.88F HX  81
MT. PLEASANT * PTSUNNY   86  55  35 SW13      29.89F HX  84
MUSCATINE *    PTSUNNY   84  64  51 S12G21    29.88S HX  86
QUAD CITIES    PTSUNNY   82  65  56 S9        29.88F HX  84
$$

IAZ062-063-075>077-085>089-095>099-252100-
   SOUTHEAST IOWA

CITY           SKY/WX    TMP DP  RH WIND       PRES   REMARKS
BURLINGTON     MOSUNNY   82  63  52 SW15      29.90F HX  83
FAIRFIELD *      N/A    N/A N/A N/A MISG        N/A
FORT MADISON * MOSUNNY   81  63  54 S8        29.91F HX  82
KEOKUK *       MOSUNNY   82  63  51 S13       29.90F HX  83
OSKALOOSA *      N/A     79  59  50 S13       29.86F HX  80
OTTUMWA        CLOUDY    77  63  61 S14       29.86F
WASHINGTON *   SUNNY     82  72  69 SW15      29.89S HX  87
$$

ABBREVIATIONS USED IN REMARKS
   TC - TEMPERATURES IN CELSIUS
  WCI - WIND CHILL INDEX
   HX - HEAT INDEX
  VSB - VISIBILITY
$$




USA.gov is the U.S. government's official web portal to all federal, state and local government web resources and services.